[[{"header":{"parameterUnit":"m.s-1","parameterCategory":1,"la1":30.2991,"la2":30.254,"lo1":-89.0895,"lo2":-89.0444,"dy":0.0017,"dx":0.0017,"nx":28,"ny":28,"refTime":"2025-09-16T09:00:00:Z","depth":0,"parameterNumber":2,"parameterNumberName":"U-component_of_WINDS"},"data":[0,0,0,0,0,0,0,0,0,0,0,0,0,0,0,0,0,0,0,0,0,0,0,0,0,0,0,0,0,0,0,0,0,0,0,0,0,0,0,0,0,0,0,0,0,0,0,0,0,0,0,0,0,0,0,0,0,0,1.7045,1.7044,0,1.7003,1.7003,1.7002,1.6979,1.6979,1.6979,1.6979,1.6933,1.6932,1.6931,0,0,0,0,0,0,0,0,0,0,0,0,0,1.7103,1.7102,1.7045,1.7044,1.7044,1.7003,1.7003,1.7002,1.6979,1.6979,1.6979,1.6979,1.6933,1.6932,1.6931,0,0,0,0,0,0,0,0,0,0,0,0,0,1.7071,1.7102,1.7045,1.7028,1.7026,1.7003,1.7003,1.7002,1.6979,1.6979,1.6979,1.6979,1.6934,1.6932,1.693,1.6921,0,0,1.6925,1.6924,0,0,0,0,0,0,0,0,1.7073,1.7069,1.7031,1.7029,1.7027,1.6997,1.7006,1.6975,1.6979,1.6997,1.6979,1.6979,1.6954,1.6951,1.6943,1.6919,1.6917,1.6925,1.6924,1.6923,1.6922,0,0,0,0,0,0,0,1.7075,1.7071,1.7028,1.703,1.7028,1.7022,1.7017,1.7,1.6976,1.6995,1.6994,1.6989,1.6953,1.6945,1.6942,1.6916,1.6925,1.6923,1.6922,1.6921,1.6884,1.6884,0,0,0,0,0,0,1.7081,1.7073,1.703,1.7027,1.705,1.7021,1.7015,1.7006,1.6976,1.6972,1.6989,1.6988,1.6948,1.6944,1.694,1.6928,1.6923,1.6921,1.692,1.6883,1.6884,1.6884,0,0,0,0,0,0,1.7082,1.7077,1.7031,1.7049,1.7043,1.702,1.701,1.7005,1.6997,1.6972,1.6967,1.6985,1.6947,1.6942,1.6926,1.6926,1.6921,1.6919,1.6883,1.6884,1.6884,1.6902,0,0,0,0,0,0,1.7084,1.7078,1.7074,1.705,1.7042,1.7019,1.7009,1.7005,1.6995,1.6993,1.6967,1.6963,1.6947,1.6929,1.6925,1.6923,1.6918,1.6883,1.6883,1.6884,1.6902,1.6903,1.6904,0,0,0,0,0,1.7086,1.708,1.7074,1.7069,1.7037,1.7019,1.7015,1.6998,1.6995,1.6991,1.6975,1.6963,1.6927,1.6928,1.6922,1.692,1.6883,1.6883,1.6884,1.6901,1.6903,1.6904,0,0,0,0,0,0,1.7103,1.7076,1.7069,1.7055,1.704,1.7015,1.701,1.7,1.6984,1.6983,1.6962,1.6956,1.6943,1.693,1.6931,1.691,1.6904,1.6903,1.6919,1.692,1.6922,1.6925,1.6916,0,0,0,0,0,1.7106,1.7094,1.7071,1.706,1.7053,1.7033,1.7024,1.7013,1.6996,1.6989,1.6971,1.6954,1.6939,1.6929,1.6913,1.69,1.6894,1.6896,1.6898,1.6899,1.6898,1.6891,1.6892,1.6884,1.6884,1.6884,0,0,1.711,1.7094,1.7087,1.7064,1.705,1.7038,1.7027,1.7015,1.7005,1.6986,1.6971,1.6958,1.6937,1.6923,1.6916,1.6912,1.6899,1.6899,1.69,1.6899,1.6891,1.6892,1.6893,1.6884,1.6884,1.6884,0,0,1.7111,1.7098,1.7089,1.7076,1.7057,1.7044,1.7042,1.7019,1.7011,1.6995,1.6981,1.6969,1.6943,1.693,1.6919,1.6919,1.6908,1.6914,1.692,1.6914,1.6915,1.6915,1.6915,1.6916,1.6913,1.6913,1.6913,0,1.7119,1.7101,1.7085,1.7074,1.7064,1.7048,1.7039,1.7027,1.7003,1.6997,1.6993,1.6961,1.6946,1.6929,1.6929,1.6921,1.6918,1.6916,1.6916,1.6916,1.6916,1.6916,1.6917,1.6914,1.6914,1.6914,1.6914,0,1.7111,1.7099,1.7094,1.7073,1.7063,1.7052,1.7035,1.7026,1.7017,1.7004,1.6989,1.6971,1.6952,1.6947,1.6936,1.6929,1.6927,1.692,1.6913,1.6918,1.6918,1.6918,1.6916,1.6915,1.6915,1.6915,0,0,1.712,1.7093,1.7092,1.7083,1.7062,1.7051,1.7041,1.7024,1.7017,1.7002,1.6992,1.6972,1.6966,1.6954,1.6942,1.6937,1.6938,1.693,1.6929,1.6933,1.693,1.6935,1.6936,1.6932,1.6932,1.6931,1.6932,0,1.7119,1.71,1.7087,1.7073,1.7062,1.7048,1.7039,1.7025,1.7013,1.7002,1.6988,1.6974,1.6967,1.696,1.6954,1.694,1.6938,1.6939,1.6922,1.6922,1.6927,1.6935,1.694,1.6941,1.6931,1.6931,1.6931,0,1.7115,1.7102,1.7088,1.7069,1.7064,1.7056,1.7041,1.703,1.7014,1.7006,1.6994,1.6983,1.6971,1.6966,1.6949,1.6951,1.6943,1.6935,1.6934,1.6932,1.6926,1.6933,1.6941,1.6942,1.6931,1.6931,1.6931,0,1.7124,1.7103,1.7092,1.7085,1.7063,1.7058,1.7048,1.7032,1.7024,1.701,1.7004,1.6989,1.698,1.6968,1.6953,1.695,1.6938,1.6931,1.693,1.6931,1.6928,1.6928,1.6935,1.6923,1.6923,1.6923,1.6923,0,1.7123,1.7115,1.7096,1.7089,1.708,1.7065,1.7055,1.7045,1.7031,1.7022,1.7008,1.7,1.698,1.6969,1.6957,1.6945,1.6941,1.6934,1.6931,1.6935,1.6936,1.6929,1.6929,1.6923,1.6923,1.6923,1.6923,0,1.7131,1.7118,1.7105,1.7087,1.7082,1.7076,1.706,1.7052,1.7041,1.703,1.7026,1.7008,1.6994,1.6978,1.6959,1.6951,1.694,1.6935,1.6946,1.6944,1.6945,1.6945,1.6947,1.6947,1.6936,1.6936,1.6936,0,1.7132,1.7126,1.7107,1.7101,1.7092,1.7082,1.7074,1.7059,1.7051,1.7034,1.7029,1.7015,1.7002,1.6982,1.6966,1.6952,1.6946,1.6948,1.6944,1.6949,1.6946,1.6947,1.6947,1.6949,1.6949,1.6949,1.695,0,1.7135,1.7129,1.7118,1.7106,1.7097,1.7086,1.7075,1.707,1.7053,1.7044,1.7032,1.7022,1.7004,1.699,1.6974,1.6964,1.6954,1.6952,1.6951,1.6955,1.6961,1.6958,1.6949,1.6951,1.6951,1.6951,1.6951,1.6951,1.7139,1.7133,1.712,1.7109,1.7099,1.7089,1.7082,1.7071,1.7061,1.7046,1.7037,1.7025,1.701,1.6988,1.6978,1.6968,1.6964,1.6963,1.6962,1.6962,1.6964,1.6964,1.6965,1.6965,1.6965,1.6965,1.6965,0,1.7141,1.7133,1.7123,1.7108,1.71,1.7093,1.7081,1.7074,1.7063,1.7051,1.704,1.7026,1.7013,1.6998,1.6984,1.6979,1.6974,1.6976,1.6975,1.6973,1.6968,1.697,1.698,1.698,1.698,1.698,1.698,1.698,1.7141,1.7132,1.7125,1.7111,1.7102,1.7091,1.7084,1.7075,1.7066,1.7051,1.7041,1.7032,1.7018,1.7004,1.6992,1.6987,1.6983,1.6986,1.698,1.6975,1.6974,1.6972,1.6974,1.6985,1.6985,1.6987,1.6987,1.6987]},{"header":{"parameterUnit":"m.s-1","parameterCategory":1,"la1":30.2991,"la2":30.254,"lo1":-89.0895,"lo2":-89.0444,"dy":0.0017,"dx":0.0017,"nx":28,"ny":28,"refTime":"2025-09-16T09:00:00:Z","depth":0,"parameterNumber":3,"parameterNumberName":"V-component_of_WINDS"},"data":[0,0,0,0,0,0,0,0,0,0,0,0,0,0,0,0,0,0,0,0,0,0,0,0,0,0,0,0,0,0,0,0,0,0,0,0,0,0,0,0,0,0,0,0,0,0,0,0,0,0,0,0,0,0,0,0,0,0,-1.2917,-1.2918,0,-1.2961,-1.2961,-1.2962,-1.296,-1.2959,-1.2959,-1.2958,-1.3003,-1.3004,-1.3006,0,0,0,0,0,0,0,0,0,0,0,0,0,-1.2834,-1.2836,-1.2917,-1.2918,-1.2918,-1.296,-1.2961,-1.2962,-1.296,-1.2959,-1.2958,-1.2958,-1.3002,-1.3004,-1.3006,0,0,0,0,0,0,0,0,0,0,0,0,0,-1.2873,-1.2836,-1.2917,-1.2922,-1.2923,-1.296,-1.2961,-1.2962,-1.296,-1.2959,-1.2958,-1.2957,-1.3001,-1.3004,-1.3007,-1.3041,0,0,-1.3015,-1.3016,0,0,0,0,0,0,0,0,-1.2871,-1.2876,-1.2921,-1.2922,-1.2923,-1.2954,-1.2948,-1.2988,-1.296,-1.2946,-1.2958,-1.2957,-1.2987,-1.2991,-1.3001,-1.3043,-1.3045,-1.3015,-1.3017,-1.3018,-1.3018,0,0,0,0,0,0,0,-1.2868,-1.2874,-1.2934,-1.2922,-1.2923,-1.2923,-1.2928,-1.2956,-1.2971,-1.2947,-1.2947,-1.2952,-1.2988,-1.2999,-1.3002,-1.3046,-1.3015,-1.3017,-1.3019,-1.302,-1.312,-1.3121,0,0,0,0,0,0,-1.2864,-1.2872,-1.2933,-1.2936,-1.2894,-1.2925,-1.293,-1.2945,-1.2971,-1.2974,-1.2953,-1.2952,-1.2995,-1.2999,-1.3004,-1.3047,-1.3018,-1.302,-1.3022,-1.3119,-1.312,-1.3122,0,0,0,0,0,0,-1.2863,-1.287,-1.2931,-1.2904,-1.2912,-1.2928,-1.2944,-1.2946,-1.2957,-1.2975,-1.2978,-1.2961,-1.2994,-1.3,-1.3032,-1.3048,-1.3021,-1.3024,-1.3118,-1.312,-1.3121,-1.3133,0,0,0,0,0,0,-1.286,-1.2869,-1.2882,-1.2904,-1.2913,-1.2959,-1.2945,-1.2948,-1.2962,-1.2961,-1.2984,-1.2987,-1.2994,-1.3028,-1.3035,-1.3052,-1.3026,-1.3117,-1.3119,-1.3121,-1.3131,-1.3135,-1.3138,0,0,0,0,0,-1.2857,-1.2883,-1.2883,-1.289,-1.293,-1.296,-1.2965,-1.2972,-1.2963,-1.2977,-1.2988,-1.2986,-1.3046,-1.3032,-1.3039,-1.3057,-1.3116,-1.3118,-1.312,-1.313,-1.3134,-1.3138,0,0,0,0,0,0,-1.2863,-1.2886,-1.2886,-1.292,-1.2938,-1.2959,-1.2976,-1.2976,-1.2997,-1.2995,-1.3004,-1.3009,-1.3041,-1.3052,-1.3036,-1.3092,-1.3079,-1.3083,-1.3084,-1.3088,-1.3092,-1.3089,-1.3028,0,0,0,0,0,-1.2868,-1.289,-1.291,-1.2938,-1.2947,-1.296,-1.2973,-1.2978,-1.2996,-1.3004,-1.3018,-1.3037,-1.306,-1.3075,-1.3097,-1.3133,-1.3138,-1.3149,-1.3152,-1.3155,-1.3158,-1.318,-1.3185,-1.313,-1.313,-1.313,0,0,-1.2879,-1.2894,-1.2908,-1.2939,-1.2954,-1.2977,-1.2966,-1.2991,-1.3009,-1.3008,-1.3039,-1.305,-1.3072,-1.3106,-1.3122,-1.3116,-1.3175,-1.3158,-1.316,-1.3162,-1.3183,-1.3188,-1.3192,-1.3131,-1.3131,-1.3131,0,0,-1.2911,-1.2924,-1.295,-1.2965,-1.2987,-1.2995,-1.3002,-1.3023,-1.3031,-1.3063,-1.3063,-1.3084,-1.3123,-1.3139,-1.3152,-1.3191,-1.319,-1.3198,-1.3215,-1.3236,-1.324,-1.3244,-1.3259,-1.3264,-1.3201,-1.3201,-1.3201,0,-1.2921,-1.2956,-1.2963,-1.2988,-1.3003,-1.3003,-1.303,-1.3044,-1.3072,-1.3082,-1.3075,-1.3125,-1.3139,-1.3178,-1.3188,-1.3198,-1.3206,-1.3195,-1.3239,-1.3243,-1.3247,-1.3261,-1.3267,-1.3202,-1.3202,-1.3202,-1.3202,0,-1.2969,-1.2993,-1.3011,-1.3038,-1.3055,-1.308,-1.3092,-1.3108,-1.3111,-1.3121,-1.3154,-1.3171,-1.3197,-1.3207,-1.321,-1.3247,-1.3242,-1.3237,-1.3224,-1.3253,-1.3266,-1.3272,-1.3203,-1.3203,-1.3203,-1.3202,0,0,-1.3005,-1.3036,-1.3043,-1.3056,-1.3081,-1.31,-1.3126,-1.3152,-1.3166,-1.3185,-1.3208,-1.3242,-1.3237,-1.3252,-1.3257,-1.3275,-1.3306,-1.3268,-1.3268,-1.3275,-1.3349,-1.3354,-1.336,-1.3306,-1.3307,-1.3307,-1.3348,0,-1.304,-1.3086,-1.3094,-1.3135,-1.3158,-1.3159,-1.3182,-1.32,-1.321,-1.3232,-1.3243,-1.3267,-1.3259,-1.3268,-1.3286,-1.3299,-1.3321,-1.3296,-1.3328,-1.3329,-1.3323,-1.3367,-1.3371,-1.3408,-1.3353,-1.3354,-1.3355,0,-1.3087,-1.3108,-1.3151,-1.3174,-1.3184,-1.3204,-1.3229,-1.3249,-1.327,-1.3276,-1.3294,-1.3297,-1.3325,-1.3311,-1.335,-1.3332,-1.3346,-1.3354,-1.3356,-1.336,-1.3344,-1.3372,-1.342,-1.3426,-1.3363,-1.3362,-1.3362,0,-1.311,-1.3149,-1.318,-1.3191,-1.3218,-1.3233,-1.3245,-1.3265,-1.328,-1.3302,-1.3312,-1.3337,-1.3351,-1.337,-1.338,-1.3369,-1.3419,-1.3406,-1.3426,-1.3426,-1.3437,-1.3436,-1.3488,-1.3444,-1.3444,-1.3444,-1.3444,0,-1.3148,-1.3175,-1.3191,-1.3211,-1.3241,-1.325,-1.328,-1.3291,-1.3309,-1.3332,-1.3334,-1.3355,-1.3366,-1.3389,-1.3397,-1.3429,-1.3435,-1.3442,-1.3443,-1.3442,-1.3441,-1.3451,-1.3449,-1.3446,-1.3445,-1.3445,-1.3445,0,-1.3179,-1.3191,-1.3226,-1.3249,-1.3255,-1.3277,-1.3297,-1.3316,-1.3326,-1.3354,-1.3361,-1.3378,-1.3405,-1.3417,-1.345,-1.3455,-1.3492,-1.3492,-1.3485,-1.3486,-1.3506,-1.3504,-1.3567,-1.3576,-1.3525,-1.3526,-1.3526,0,-1.3204,-1.3224,-1.325,-1.3265,-1.3277,-1.3301,-1.3317,-1.3327,-1.3344,-1.337,-1.3386,-1.3413,-1.3436,-1.3479,-1.3494,-1.352,-1.352,-1.3541,-1.3524,-1.3522,-1.3522,-1.3521,-1.3523,-1.3544,-1.3544,-1.3545,-1.3545,0,-1.3246,-1.3251,-1.3273,-1.3299,-1.3318,-1.3338,-1.3358,-1.337,-1.3383,-1.3402,-1.343,-1.3447,-1.3481,-1.3509,-1.3536,-1.3548,-1.3549,-1.355,-1.3556,-1.3555,-1.3551,-1.3554,-1.3494,-1.3549,-1.3548,-1.3548,-1.3548,-1.3548,-1.3274,-1.3293,-1.3315,-1.334,-1.3356,-1.3375,-1.3395,-1.3408,-1.3431,-1.346,-1.3464,-1.3494,-1.3516,-1.3552,-1.3566,-1.359,-1.3585,-1.3594,-1.3596,-1.3599,-1.36,-1.3546,-1.3595,-1.3595,-1.3595,-1.3595,-1.3595,0,-1.3317,-1.3331,-1.3355,-1.3383,-1.3403,-1.3402,-1.3425,-1.3442,-1.3468,-1.3488,-1.351,-1.3543,-1.357,-1.3587,-1.3614,-1.363,-1.3632,-1.3637,-1.3637,-1.364,-1.3603,-1.3595,-1.3636,-1.3636,-1.3636,-1.3636,-1.3636,-1.3636,-1.3342,-1.3374,-1.3382,-1.3423,-1.3437,-1.3466,-1.3479,-1.3497,-1.3513,-1.3549,-1.3572,-1.3583,-1.3602,-1.3631,-1.3656,-1.3661,-1.3671,-1.3677,-1.3681,-1.3646,-1.3642,-1.3638,-1.3631,-1.3679,-1.3679,-1.3717,-1.3717,-1.3717]}]]